SL-14 R/B, 23005

Orbit data source: Space-Track

SL-14 R/B, 23005 is space debris in LEO originally from a launch on Sat, 12 Feb 1994 UTC launched from the Plesetsk Missile And Space Complex (PKMTR). Debris objects in space refer to the collection of defunct objects orbiting the Earth. Examples of debris include non-operational satellites, rocket bodies, and fragments generated from explosions, collisions, or faulty payload assembly.

Loading next visibility...
Identifier
23005, 1994-011G
Orbit
LEO
Last TLE update
15 hours ago
Origin
Manufacturer
Yuzhnoe
Mission
Spacecraft
Bus & Motor
S5M, Unknown motor
Mass
1,600 kg wet, 1,600 kg dry
Launch date (UTC)
1994-02-12 (31 years ago)
Launch vehicle
Unknown
Launch site
Plesetsk Missile And Space Complex (PKMTR)
Object type
Payload
Rocket body
Debris
Shape & HBR
Cyl, 2.7 m
Radar Cross Section
7.351 m², Large (>1 m²)

Expand to show TLE details & history

TLE from 15 hours ago
0 SL-14 R/B
1 23005U 94011G   25139.99309543  .00000037  00000-0  16682-3 0  9993
2 23005  82.5754 310.5345 0040169 273.1307 206.8285 12.55218397432639
Epoch: 2025-05-19T23:50Z
TLE epoch observation values (Epoch: 2025-05-19T23:50:03.445Z)
Latitude
59.50565°
Longitude
-117.5981°
Altitude
1,480.858 km
Speed
7.116 km/s
True Right ascension
07h 51m 15s
True Declination
59° 22' 08"
Sunlit
Object was in daylight at epoch
Visualization orbit readout
Latitude
54.3323°
Longitude
-115.6892°
Altitude
1,477.828 km
Speed
7.117 km/s
Apparent Right ascension
10h 05m 41s
Apparent Declination
15° 38' 55"
Sunlit
Object is in daylight
Visualization observer readout
Local Sidereal Time
00:03:37
Azimuth
32.474° NE
Elevation
-28.022°
Doppler factor
1
Orbital elements
Apogee altitude
1,471.479 km
Perigee altitude
1,408.669 km
Semi-major axis
7,818.211 km
Eccentricity
0.00402
Inclination
82.5754°
RAAN
310.5345°
Arg. of periapsis
273.1307°
True anomaly
Unknown
Mean anomaly
206.8285°
Eccentric anomaly
Unknown
Mean motion
3.13966 °/min
Orbital period
114.66 mins
BSTAR
0.00016682
Loading maneuver chart data...
Loading SW <> Apogee altitude chart data...
Loading historical data...
Loading historical data...
Loading historical data...
Loading historical data...
Loading historical data...
Loading historical data...
Loading historical data...

SL-14 R/B Visibility forecast

Observer location: undefined°, undefined°

Span
Click to sort rows by Start time (UTC) header in descending order
Start Az.
Max El. time (UTC)
Max El. Az.
Max El.
End time (UTC)
End Az.
4 mins2025-05-20 20:53:59.647Z43.338° NE2025-05-20 20:55:59.647Z57.479° ENE11.562°2025-05-20 20:57:59.647Z71.638° E
16 mins2025-05-20 22:45:59.647Z359.447° N2025-05-20 22:53:59.647Z94.966° ESE41.937°2025-05-20 23:01:59.647Z160.689° S
12 mins2025-05-21 00:42:59.647Z323.782° NNW2025-05-21 00:47:59.647Z283.239° WNW23.518°2025-05-21 00:54:59.647Z227.332° WSW
15 mins2025-05-21 11:37:59.647Z172.23° S2025-05-21 11:44:59.647Z103.252° ESE43.005°2025-05-21 11:52:59.647Z13.141° NNE
12 mins2025-05-21 13:35:59.647Z246.052° WSW2025-05-21 13:41:59.647Z296.694° NW22.936°2025-05-21 13:47:59.647Z343.422° N
|